Temperature
11 11 11 11 11 11 11 11 11 11 11 11 12 12 12 12 13 13 13 13 13 14 14 14 14 14 15 14 15 15 15 15 15 16 16 16 16 16 16 16 16 16 15
11 11 11 11 11 11 11 11 11 11 11 11 11 11 12 12 12 13 13 13 13 13 14 14 14 14 14 14 14 14 15 15 15 15 15 15 15 15 15 15 15 15 15
12 11 11 11 11 10 10 10 10 11 11 11 11 11 11 11 12 12 12 13 13 13 13 13 14 14 14 14 14 14 14 14 14 15 15 15 15 15 15 14 14 14 14
12 11 11 11 10 10 10 10 10 10 10 11 11 11 11 11 11 12 12 12 13 13 13 13 13 14 14 14 14 14 14 14 14 14 14 14 14 14 14 14 14 14 14
12 11 11 10 10 10 10 10 10 10 10 10 10 10 10 11 11 11 12 12 12 13 13 13 13 13 14 14 14 14 14 14 14 14 14 14 13 13 13 13 13 13 13
12 11 11 10 10 10 10 10 10 10 10 10 10 10 10 11 11 11 11 12 12 12 12 13 13 13 13 13 13 13 13 13 14 13 13 13 13 13 13 13 13 13 12
11 11 11 11 10 10 10 10 10 10 10 10 10 10 10 10 11 11 11 11 12 12 12 12 12 13 13 13 13 13 13 13 13 13 13 13 13 13 13 13 13 13 13
11 11 11 11 10 10 10 10 10 10 10 10 10 10 10 10 11 11 11 11 11 12 12 12 12 13 13 13 13 13 13 13 13 13 13 13 13 13 13 13 13 13 12
12 11 11 11 10 10 10 10 10 10 10 10 10 10 10 10 10 11 11 11 11 11 11 12 12 12 12 13 13 13 13 13 13 13 13 13 13 13 13 13 12 12 12
12 11 11 11 10 10 10 10 10 10 10 10 10 10 10 10 10 10 11 11 11 11 11 11 12 12 12 12 12 13 13 13 13 13 13 13 13 13 12 13 13 12 12
12 12 11 11 11 10 10 10 10 10 10 10 10 10 10 10 10 10 10 11 11 11 11 11 11 11 12 12 12 12 12 12 12 12 12 12 12 12 12 12 12 12 12
12 12 12 11 11 11 11 10 10 10 10 10 10 10 10 10 10 10 10 10 10 11 11 11 11 12 12 12 12 12 12 12 12 12 12 12 12 12 12 12 12 12 12
13 13 12 12 11 11 11 11 10 10 10 10 10 10 10 10 10 10 10 10 10 11 11 11 11 11 12 12 12 12 12 12 12 12 12 12 12 12 12 12 11 11 11
13 13 12 12 12 11 11 11 11 10 10 10 10 10 10 10 10 10 10 10 11 11 11 11 11 11 11 12 12 12 12 12 12 12 12 12 12 12 11 11 11 11 11
14 13 13 13 12 12 11 11 11 11 10 10 10 10 10 10 10 10 10 10 11 11 11 11 11 11 11 12 12 12 12 12 12 12 12 12 12 11 11 11 11 11 11
15 14 14 13 13 12 12 12 11 11 11 11 11 10 10 10 10 10 11 11 11 11 11 11 11 11 11 12 12 12 12 12 12 12 12 12 12 11 11 11 11 11 11
15 15 14 14 13 13 12 12 12 11 11 11 11 11 11 11 10 10 11 11 11 11 11 11 11 11 11 11 12 12 12 11 11 11 11 11 11 11 11 11 10 10 10
16 15 15 14 14 13 13 12 12 12 11 11 11 11 11 11 11 11 11 11 11 11 11 11 11 11 11 11 11 11 11 11 11 11 11 11 11 11 10 10 10 10 10
16 16 15 15 14 14 13 13 12 12 12 12 11 11 11 11 11 11 11 11 11 11 11 11 11 11 11 11 11 11 11 11 11 11 11 11 10 10 10 10 10 10 9
16 16 16 15 15 14 14 13 13 13 12 12 12 12 11 11 11 11 11 11 11 11 11 11 11 11 11 11 11 11 11 11 11 11 11 10 10 10 10 10 10 9 9
16 16 15 15 15 15 15 14 14 13 13 13 12 12 12 12 12 12 12 12 11 11 11 11 11 11 11 11 11 11 11 11 10 10 10 10 10 10 10 9 9 9 9
15 15 15 15 15 15 15 15 14 14 13 13 13 12 12 12 12 12 12 12 12 11 11 11 11 11 11 11 11 11 10 10 10 10 10 10 10 10 9 9 9 9 9
14 14 15 15 15 15 15 15 14 14 14 13 13 13 12 12 12 12 12 12 12 11 11 11 11 11 11 11 11 11 11 10 10 10 10 10 10 9 9 9 9 9 9
13 13 14 14 14 14 15 15 15 14 14 14 13 13 13 13 13 12 12 12 12 12 11 11 11 11 11 11 11 11 11 10 10 10 10 10 10 9 9 9 9 9 8
11 12 12 13 13 13 14 14 14 14 14 14 14 13 13 13 13 13 12 12 12 12 12 12 11 11 11 11 11 11 11 10 10 10 10 10 9 9 9 9 9 8 8
9 10 10 11 11 12 12 13 13 14 14 14 14 14 13 13 13 13 13 12 12 12 12 12 12 12 11 11 11 11 11 11 10 10 10 10 10 9 9 9 9 8 8
Wind_Speed
6 6 6 7 7 7 7 8 8 7 7 7 7 6 5 4 3 2 2 3 4 5 5 7 7 7 7 7 7 7 6 5 4 2 2 2 3 5 6 7 8 9 9
5 5 6 6 7 7 8 8 8 8 8 7 7 7 6 5 4 3 2 2 3 4 5 6 7 6 7 6 7 7 7 6 5 5 3 3 3 5 6 6 7 8 9
4 5 6 6 7 7 8 8 8 8 8 8 7 7 7 6 5 4 3 2 3 3 4 6 7 8 8 6 7 7 6 6 5 6 5 3 3 5 6 7 7 6 8
3 4 5 6 6 7 7 7 8 7 7 8 7 7 7 6 6 4 3 3 2 2 3 4 6 8 8 8 8 8 7 7 7 7 7 5 5 6 7 7 6 5 6
3 4 5 6 6 6 7 7 7 7 8 7 7 8 8 6 5 5 4 3 3 2 2 3 4 7 9 9 7 8 8 7 7 7 7 6 6 8 8 6 8 7 5
3 4 5 6 6 6 7 7 7 7 7 7 7 7 8 7 10 9 5 2 2 2 2 2 3 5 8 10 11 12 11 10 9 7 6 8 8 8 7 9 9 8 4
3 4 5 5 6 6 7 7 7 7 6 7 7 7 8 9 12 11 8 3 2 2 2 1 1 2 4 5 8 11 10 11 11 8 9 9 9 10 11 11 10 6 5
4 5 5 5 6 6 6 7 6 5 6 6 7 8 7 10 14 12 8 4 2 2 2 1 1 1 2 5 6 6 6 6 8 7 7 8 9 10 10 10 10 9 8
5 5 5 4 5 6 6 7 5 5 5 5 5 7 8 10 14 12 7 3 2 3 3 2 1 1 4 7 7 7 6 5 5 7 8 9 13 15 14 12 11 11 7
6 5 5 4 4 5 6 5 4 4 5 5 5 6 7 8 13 13 8 3 2 2 3 3 3 3 5 7 6 7 7 6 6 8 8 10 11 15 16 12 12 11 7
5 4 4 4 4 4 4 4 4 5 5 5 6 6 6 8 11 13 9 3 2 2 2 3 2 4 6 7 6 5 7 7 7 8 8 8 8 8 7 7 7 9 7
4 4 4 4 3 2 3 4 4 5 5 6 6 6 5 6 8 10 10 7 4 2 2 2 3 6 8 7 6 9 11 9 6 7 7 7 7 7 6 7 8 8 5
5 6 5 4 3 2 2 3 3 3 4 4 5 5 6 6 7 11 10 9 7 4 3 5 6 8 8 7 9 10 8 6 7 7 7 5 4 7 8 8 9 11 12
7 7 5 5 5 3 2 2 2 2 3 3 4 5 5 5 5 6 6 5 6 5 4 6 9 10 8 8 7 6 5 5 6 7 6 5 5 6 6 5 6 6 6
8 7 6 6 5 5 4 4 4 4 4 3 3 3 3 4 5 8 5 3 3 2 3 3 4 4 5 5 5 5 5 5 6 5 6 6 7 6 5 5 4 4 4
8 8 6 5 5 5 4 4 7 8 8 8 7 5 4 5 7 7 7 5 4 3 3 3 3 3 3 3 4 4 4 4 5 5 6 6 7 7 6 4 4 4 5
10 9 6 6 6 5 5 5 5 5 7 8 8 8 7 6 5 5 5 5 3 3 3 2 2 2 2 3 3 3 3 3 4 5 6 6 6 6 6 5 5 5 5
11 11 9 7 7 6 6 6 5 4 4 4 5 7 8 6 5 4 2 1 2 2 1 2 2 2 2 2 3 3 3 4 4 5 5 5 6 5 5 5 5 5 5
10 9 8 8 7 7 6 6 6 6 5 5 4 4 6 5 5 4 2 2 2 2 2 2 2 2 2 2 3 3 4 4 4 5 5 5 5 5 5 5 5 7 5
9 14 12 8 7 7 7 7 7 7 6 6 6 6 3 3 3 3 3 4 4 4 4 4 4 4 4 4 4 4 4 4 5 4 4 5 5 5 6 7 7 6 5
8 10 13 9 8 9 8 9 8 8 8 7 8 7 9 6 6 6 6 6 6 6 6 5 5 5 5 4 4 5 5 5 5 5 5 5 5 5 5 6 6 6 5
7 8 8 9 10 9 9 9 9 8 9 9 8 6 11 7 6 6 7 7 7 6 6 6 6 6 6 6 6 6 6 6 6 6 6 6 6 5 5 5 6 5 6
9 9 8 9 9 11 11 9 9 9 10 10 9 7 7 8 8 8 8 8 7 7 6 6 7 6 6 6 7 7 8 8 8 8 7 7 6 6 6 6 7 6 6
10 10 10 9 9 9 10 10 10 10 11 10 10 9 9 9 9 10 9 8 8 7 7 7 8 10 11 8 9 11 11 11 11 9 10 9 8 7 6 6 7 7 7
11 10 10 9 9 10 10 11 11 11 11 11 10 10 9 10 10 10 9 9 9 9 10 9 8 9 12 13 12 13 15 16 14 13 11 8 9 9 8 7 6 5 6
12 12 10 9 9 9 9 10 11 11 11 11 11 10 10 10 10 10 9 9 9 9 10 9 11 12 13 14 17 19 19 19 18 17 13 8 9 8 8 7 8 7 7
Wind_Direction
334 337 344 343 345 347 348 346 343 340 341 342 341 341 337 333 323 294 266 242 225 220 212 204 204 192 190 196 193 189 186 173 177 166 159 137 143 143 137 146 149 151 160
325 336 340 340 343 346 343 341 342 344 343 342 344 348 348 344 338 327 299 270 234 225 216 207 203 195 191 193 193 193 188 179 169 167 162 153 145 141 136 134 130 133 133
328 337 341 341 341 339 337 338 341 343 344 346 348 348 345 341 338 336 325 292 254 240 226 216 207 192 193 192 189 189 188 182 166 163 164 153 141 134 127 119 116 113 118
328 337 335 331 330 329 334 338 340 341 344 345 345 345 342 337 335 335 334 325 299 268 243 226 210 196 192 188 188 185 182 177 167 163 159 153 147 141 138 135 128 114 114
329 332 324 322 327 334 339 339 339 343 346 343 347 347 344 341 339 337 330 328 321 313 288 246 219 200 196 191 187 183 178 174 169 166 163 160 160 158 155 145 139 126 102
316 316 320 327 332 337 337 337 342 345 345 350 351 346 346 345 341 343 338 324 325 319 304 281 234 207 202 199 192 185 179 176 173 170 171 173 171 161 148 148 144 143 136
304 311 319 325 329 331 335 342 343 342 346 349 347 346 343 338 345 349 353 347 337 327 308 306 264 206 185 179 184 180 183 182 176 168 171 175 171 166 158 157 156 145 131
296 303 311 320 322 328 337 340 337 336 341 341 342 343 342 344 351 354 357 359 356 351 342 312 283 230 184 159 155 154 157 167 171 171 176 176 169 163 160 154 142 118 105
282 288 298 310 317 327 334 332 330 333 338 339 338 345 346 344 352 354 359 350 1 7 2 6 50 132 160 141 138 135 132 133 136 146 154 157 156 152 146 139 139 140 136
261 270 285 296 305 313 319 321 323 324 324 331 341 346 347 343 347 353 359 355 10 6 7 22 46 69 103 121 133 136 135 129 127 126 127 134 143 149 151 154 154 151 140
252 265 280 288 291 296 313 321 327 332 338 344 341 340 345 345 347 355 4 7 11 14 19 25 42 78 92 99 111 125 131 126 122 122 124 126 129 135 136 135 142 151 147
241 255 269 278 286 306 317 325 337 344 346 346 344 342 342 345 350 355 10 23 29 35 26 22 48 79 89 94 101 119 120 116 116 116 119 124 129 130 123 114 108 95 89
231 246 257 266 270 277 292 311 329 343 343 338 340 339 337 340 349 1 10 19 26 36 43 57 66 75 81 90 102 109 110 111 113 114 116 111 106 116 114 104 93 89 80
229 243 246 252 264 265 253 254 272 296 312 322 327 327 327 335 348 354 353 2 20 34 48 62 69 70 72 78 84 83 83 100 111 115 112 103 101 111 117 116 118 114 98
230 239 240 238 246 257 252 236 236 239 225 247 272 284 307 325 329 338 345 348 358 26 55 59 62 72 74 72 73 74 80 91 100 108 117 117 115 113 108 105 112 107 112
227 235 233 231 235 240 253 272 243 236 249 246 240 241 253 266 303 333 350 1 13 49 75 79 76 81 95 99 102 90 84 100 107 117 122 124 128 127 120 106 101 116 124
222 229 225 222 225 228 230 241 270 277 255 252 251 249 245 263 291 320 344 1 23 67 83 95 103 108 114 117 118 116 119 121 121 125 127 128 128 128 127 124 119 116 119
225 230 224 222 220 219 221 224 226 242 271 278 263 252 250 250 261 278 306 35 37 55 116 150 156 153 151 147 142 133 129 129 127 130 133 136 138 137 137 141 142 140 139
228 229 225 221 218 216 216 217 218 224 234 249 265 271 250 242 247 253 224 180 199 207 198 194 192 180 172 165 160 153 149 149 149 147 149 152 152 147 151 155 153 152 146
239 236 225 219 217 215 212 214 220 222 227 233 240 240 213 184 216 227 211 203 202 207 205 202 198 193 184 177 171 162 158 159 160 161 164 165 165 164 164 165 167 168 173
255 245 233 225 220 218 215 216 218 218 222 227 234 226 195 199 216 218 214 212 210 209 204 201 198 194 191 181 176 177 177 178 178 175 172 172 170 171 171 170 174 173 164
278 256 237 230 227 223 221 219 215 216 221 226 234 229 211 207 215 218 217 219 217 212 202 194 197 198 193 189 185 183 184 186 185 182 178 176 176 174 166 167 170 170 170
300 279 258 243 234 229 226 222 218 219 222 223 224 217 206 210 217 220 222 220 213 209 202 196 198 201 199 196 193 188 190 195 192 184 179 178 178 178 173 175 175 170 181
315 298 278 261 244 234 230 227 224 222 223 223 222 218 215 214 216 219 219 216 211 208 201 198 202 205 200 197 201 203 205 202 192 187 182 181 182 181 178 178 180 184 186
326 316 301 283 262 247 239 235 230 226 224 224 223 221 217 214 216 219 217 212 208 209 206 202 204 207 205 201 200 204 208 205 198 191 185 181 183 182 181 181 180 181 183
334 327 316 306 291 271 253 244 238 232 228 226 223 220 217 215 216 216 213 208 208 211 209 207 206 205 204 206 208 208 206 204 201 195 185 181 183 186 184 187 186 184 184
Height
1515 1512 1508 1505 1501 1498 1494 1491 1487 1484 1481 1478 1476 1474 1473 1472 1472 1472 1472 1473 1474 1476 1477 1480 1482 1485 1488 1492 1495 1498 1502 1506 1509 1512 1516 1519 1522 1526 1529 1532 1535 1538 1541
1515 1512 1508 1505 1501 1498 1494 1491 1487 1484 1481 1478 1475 1473 1472 1471 1470 1470 1470 1470 1471 1472 1473 1475 1478 1481 1483 1486 1489 1492 1496 1499 1503 1507 1511 1514 1518 1522 1525 1528 1531 1534 1537
1515 1512 1508 1505 1501 1498 1494 1491 1487 1484 1481 1478 1476 1473 1471 1470 1469 1468 1468 1468 1468 1469 1470 1472 1474 1476 1478 1481 1484 1487 1491 1494 1497 1502 1505 1510 1513 1517 1520 1524 1527 1530 1534
1514 1511 1508 1505 1501 1498 1494 1491 1487 1484 1481 1478 1476 1473 1471 1470 1468 1467 1466 1466 1466 1466 1467 1468 1470 1472 1474 1477 1480 1482 1486 1489 1492 1496 1500 1504 1508 1512 1516 1520 1524 1527 1530
1514 1511 1508 1504 1501 1498 1495 1491 1488 1485 1481 1479 1476 1474 1471 1469 1468 1467 1466 1465 1464 1464 1464 1465 1466 1468 1470 1473 1476 1478 1482 1484 1487 1491 1495 1499 1503 1507 1511 1516 1520 1524 1527
1514 1511 1507 1504 1502 1498 1495 1492 1489 1485 1482 1479 1476 1474 1472 1469 1468 1467 1465 1464 1463 1463 1462 1463 1464 1465 1467 1470 1472 1475 1478 1480 1483 1486 1490 1494 1498 1503 1507 1512 1516 1520 1525
1513 1510 1507 1505 1502 1499 1495 1492 1489 1486 1483 1480 1477 1474 1471 1469 1468 1466 1465 1463 1462 1462 1461 1461 1462 1463 1465 1467 1470 1472 1475 1478 1481 1484 1487 1490 1494 1499 1503 1508 1513 1518 1521
1513 1510 1508 1505 1502 1499 1496 1493 1490 1486 1483 1480 1477 1474 1472 1470 1468 1466 1464 1463 1461 1460 1460 1460 1460 1461 1463 1465 1467 1470 1472 1475 1478 1481 1485 1488 1492 1497 1502 1506 1511 1516 1520
1512 1510 1507 1505 1502 1499 1496 1493 1490 1487 1484 1481 1478 1475 1472 1470 1468 1466 1464 1462 1461 1460 1459 1459 1459 1460 1461 1463 1466 1468 1471 1474 1477 1480 1483 1487 1490 1495 1500 1504 1509 1513 1517
1511 1509 1507 1505 1502 1499 1496 1493 1491 1488 1485 1482 1479 1476 1473 1470 1468 1466 1464 1462 1461 1460 1460 1459 1459 1459 1461 1463 1465 1467 1470 1473 1476 1479 1483 1486 1490 1494 1499 1503 1507 1511 1515
1510 1508 1506 1504 1502 1499 1496 1494 1491 1488 1485 1482 1479 1476 1474 1471 1469 1466 1464 1463 1462 1461 1461 1460 1460 1461 1462 1464 1466 1468 1470 1473 1476 1479 1482 1486 1490 1494 1498 1502 1507 1511 1514
1509 1507 1506 1504 1501 1499 1496 1494 1491 1488 1486 1483 1480 1477 1474 1472 1470 1468 1466 1465 1464 1463 1463 1462 1463 1463 1464 1466 1468 1470 1472 1475 1477 1480 1483 1486 1490 1494 1498 1502 1506 1510 1514
1507 1506 1504 1503 1501 1498 1496 1494 1491 1489 1486 1483 1481 1478 1475 1473 1471 1469 1468 1467 1466 1465 1465 1465 1465 1466 1467 1469 1471 1473 1475 1477 1479 1481 1484 1487 1490 1494 1498 1502 1506 1510 1513
1505 1504 1503 1501 1500 1498 1495 1493 1491 1489 1486 1484 1481 1479 1477 1474 1472 1471 1470 1469 1468 1468 1468 1468 1469 1469 1470 1472 1474 1475 1477 1479 1481 1484 1486 1489 1492 1496 1499 1503 1506 1509 1512
1502 1501 1500 1499 1498 1496 1494 1492 1490 1489 1486 1484 1482 1480 1478 1476 1474 1473 1471 1471 1471 1471 1471 1471 1472 1473 1474 1475 1477 1479 1480 1482 1484 1486 1489 1491 1494 1497 1500 1503 1506 1509 1512
1499 1498 1497 1496 1495 1494 1492 1491 1489 1487 1486 1484 1482 1480 1479 1477 1476 1475 1474 1473 1473 1473 1474 1474 1475 1476 1477 1478 1480 1481 1483 1485 1487 1489 1491 1493 1496 1498 1501 1504 1506 1509 1512
1495 1494 1493 1493 1492 1491 1490 1488 1487 1486 1485 1483 1481 1480 1478 1477 1477 1476 1475 1475 1475 1475 1476 1476 1477 1478 1479 1481 1482 1484 1485 1487 1488 1490 1493 1495 1497 1499 1501 1504 1506 1508 1510
1490 1490 1489 1488 1488 1487 1486 1485 1484 1483 1482 1481 1480 1479 1478 1477 1476 1476 1476 1476 1476 1476 1477 1477 1478 1479 1480 1482 1483 1485 1486 1488 1489 1491 1493 1495 1498 1500 1502 1504 1506 1508 1509
1484 1484 1484 1483 1483 1482 1482 1481 1481 1480 1479 1478 1478 1477 1476 1476 1475 1475 1475 1475 1475 1476 1477 1477 1478 1479 1480 1482 1483 1485 1486 1488 1489 1491 1493 1495 1497 1499 1501 1503 1505 1507 1508
1477 1477 1477 1477 1477 1477 1476 1476 1476 1475 1475 1474 1474 1474 1474 1473 1473 1473 1473 1473 1474 1474 1475 1476 1477 1478 1479 1481 1482 1484 1485 1487 1488 1490 1492 1494 1496 1498 1499 1501 1503 1504 1506
1469 1469 1470 1470 1470 1470 1470 1470 1470 1470 1469 1469 1469 1470 1470 1469 1469 1469 1469 1470 1470 1471 1472 1473 1474 1475 1477 1478 1480 1481 1483 1484 1486 1488 1490 1492 1493 1495 1497 1499 1500 1502 1504
1461 1461 1461 1461 1461 1462 1462 1463 1463 1463 1463 1463 1464 1464 1464 1464 1464 1465 1465 1465 1466 1467 1468 1469 1470 1471 1473 1474 1476 1478 1479 1481 1483 1485 1486 1488 1490 1492 1494 1495 1497 1499 1500
1454 1453 1452 1452 1453 1453 1454 1454 1455 1455 1456 1456 1457 1457 1458 1458 1458 1459 1460 1460 1461 1462 1463 1464 1465 1466 1468 1470 1471 1473 1475 1477 1479 1481 1482 1484 1486 1488 1490 1491 1493 1495 1496
1447 1445 1444 1443 1444 1444 1444 1445 1446 1447 1447 1448 1449 1450 1450 1451 1452 1452 1453 1454 1455 1456 1457 1458 1459 1461 1463 1464 1466 1468 1470 1472 1473 1475 1477 1479 1481 1483 1485 1487 1488 1490 1492
1441 1439 1436 1435 1435 1435 1435 1436 1436 1437 1438 1439 1440 1441 1442 1443 1444 1445 1446 1447 1448 1449 1450 1452 1453 1455 1456 1458 1460 1462 1464 1466 1468 1470 1472 1474 1476 1478 1480 1481 1483 1485 1487
1437 1433 1430 1428 1426 1426 1425 1426 1426 1427 1428 1429 1430 1431 1433 1434 1435 1437 1438 1439 1440 1442 1443 1444 1446 1448 1450 1451 1453 1455 1457 1459 1461 1464 1466 1468 1470 1472 1474 1476 1478 1480 1481